Volver al catálogo

ATLAS 5 CENTAUR DEB

LostHEO
NORAD 43975·DEBRIS·🇺🇸 United States

Lanzado Sep 17, 2014 desde Cape Canaveral Space Force Station

Loading…

Próximos Pases (próximas 24 horas)

TLE

ObsoletoSource: Space-Track

Época: Sep 6, 2025, 16:47 UTC

1 43975U 14055AE  25249.69989522  .00000006  00000-0  00000-0 0  9991
2 43975  20.7548 126.6478 5002287 196.5106 138.2613  1.93215598 49507

Sigue ATLAS 5 CENTAUR DEB en tiempo real con AllMySat

Download on the App Store